Regional Weather Roundup
Issued by NWS

Home | Current Version | Previous Version | Text Only | Print | Product List | Glossary On
Versions: 1 2 3 4 5 6 7 8 9 10 11 12 13 14 15 16 17 18 19 20 21 22 23 24 25 26 27 28 29 30 31 32 33 34 35 36 37 38 39 40 41 42 43 44 45 46 47 48 49 50
000
ASUS43 KTOP 252008
RWRKS

WEATHER ROUNDUP FOR KANSAS
NATIONAL WEATHER SERVICE GOODLAND KS
300 PM CDT FRI JUL 25 2014

NOTE:  "FAIR" INDICATES FEW OR NO CLOUDS BELOW 12,000 FEET WITH NO
SIGNIFICANT WEATHER AND/OR OBSTRUCTIONS TO VISIBILITY.

KSZ001>006-013>018-027>032-041>047-252100-
NORTHWEST KANSAS

CITY           SKY/WX    TMP DP  RH WIND       PRES   REMARKS
GOODLAND       MOSUNNY   94  62  34 N10G21    29.96S
HAYS           SUNNY     99  64  32 SW5       29.79F HX 101
HILL CITY      SUNNY    103  59  23 NE9       29.82S HX 103
RUSSELL        SUNNY    100  63  29 S14       29.77F HX 102
$$

KSZ061>065-074>080-084>089-252100-
SOUTHWEST KANSAS

CITY           SKY/WX    TMP DP  RH WIND       PRES   REMARKS
DODGE CITY     SUNNY    100  57  23 SW13      29.86F HX  99
ELKHART          N/A    101  60  25 SE7         N/A  HX 101
GARDEN CITY    SUNNY     98  54  22 NW6       29.88F HX  96
GREAT BEND     SUNNY    102  64  29 S21G26    29.77F HX 105
LIBERAL        SUNNY    102  57  22 S7        29.90F HX 101
PRATT          SUNNY     97  61  30 SW24      29.84F HX  97
$$

KSZ066>073-081>083-090>101-252100-
SOUTHEAST KANSAS

CITY           SKY/WX    TMP DP  RH WIND       PRES   REMARKS
CHANUTE        SUNNY     93  72  50 S16G26    29.87F HX 101
COFFEYVILLE    SUNNY     93  73  52 S18G28    29.87F HX 102
HUTCHINSON     MOSUNNY  101  64  29 SW23G30   29.81F HX 104
MEDICINE LODGE   N/A    100  63  29 SW18G26   29.82F HX 102
NEWTON         MOSUNNY   99  64  32 SW21G31   29.85F HX 101
PARSONS        SUNNY     93  73  52 S12G22    29.89F HX 102
WICHITA INTL   MOSUNNY  100  65  31 S21G29    29.82F HX 103
WICHITA JABRA  MOSUNNY  101  65  30 S21G29    29.83F HX 104
WICHITA MCCONL SUNNY    100  62  28 S21       29.83F HX 101
WINFIELD       SUNNY     98  70  40 S23G36    29.85F HX 105
$$

KSZ007>012-019>026-033>040-048>060-102>105-252100-
NORTHEAST KANSAS

CITY           SKY/WX    TMP DP  RH WIND       PRES   REMARKS
CONCORDIA      PTSUNNY  100  66  32 S12       29.76F HX 104
EMPORIA        SUNNY     99  67  35 SW21G31   29.82F HX 103
LAWRENCE       SUNNY    100  69  36 S21       29.79F HX 106
MANHATTAN      MOSUNNY  105  68  30 SW17      29.74F HX 112
MARYSVILLE     SUNNY    100  68  34 SW9G18    29.74F HX 106
OLATHE IND     SUNNY     97  70  41 S23G30    29.83F HX 103
OLATHE EXE     SUNNY     94  71  47 SW15G22   29.83F HX 101
SALINA         MOSUNNY  106  63  24 SW18G31   29.76F HX 109
TOPEKA BILLARD SUNNY    101  68  34 S14G21    29.77F HX 106
TOPEKA FORBES  SUNNY    102  67  31 SW17      29.79F HX 107
$$



USA.gov is the U.S. government's official web portal to all federal, state and local government web resources and services.